QPF
0.03 0.04 0.06 0.06 0.04 0.05 0.06 0.06 0.04 0.04 0.04 0.05 0.05 0.05 0.04 0.05 0.03 0.02 0.02 0.02 0.02 0.01 0.02 0.03 0.04 0.05 0.05 0.04 0.07 0.08 0.08 0.12 0.12 0.09 0.07 0.07 0.07 0.08 0.08 0.08 0.07 0.05 0.04 0.03
0.03 0.03 0.03 0.03 0.04 0.04 0.05 0.05 0.03 0.02 0.02 0.03 0.03 0.03 0.03 0.03 0.02 0.01 0.01 0.01 0.01 0.00 0.01 0.01 0.03 0.04 0.05 0.05 0.04 0.05 0.07 0.08 0.09 0.08 0.08 0.08 0.08 0.08 0.07 0.08 0.07 0.06 0.05 0.05
0.02 0.02 0.01 0.01 0.02 0.04 0.05 0.04 0.02 0.02 0.02 0.02 0.02 0.02 0.01 0.02 0.01 0.00 0.00 0.01 0.00 0.00 0.00 0.00 0.01 0.02 0.03 0.04 0.03 0.03 0.04 0.07 0.07 0.08 0.10 0.10 0.11 0.09 0.06 0.05 0.04 0.04 0.06 0.07
0.01 0.00 0.00 0.01 0.02 0.04 0.04 0.04 0.02 0.02 0.02 0.02 0.01 0.01 0.00 0.00 0.00 0.00 0.00 0.00 0.00 0.00 0.00 0.00 0.01 0.01 0.02 0.03 0.03 0.03 0.04 0.06 0.06 0.07 0.07 0.06 0.06 0.06 0.06 0.07 0.08 0.08 0.08 0.08
0.00 0.00 0.00 0.01 0.01 0.02 0.04 0.03 0.02 0.02 0.02 0.02 0.02 0.01 0.00 0.00 0.00 0.00 0.00 0.00 0.00 0.00 0.00 0.00 0.00 0.01 0.01 0.02 0.03 0.03 0.04 0.06 0.07 0.07 0.07 0.07 0.07 0.08 0.08 0.09 0.09 0.09 0.10 0.10
0.00 0.00 0.00 0.00 0.01 0.01 0.02 0.03 0.03 0.01 0.01 0.02 0.01 0.01 0.00 0.00 0.00 0.00 0.00 0.00 0.00 0.00 0.00 0.00 0.00 0.00 0.01 0.01 0.02 0.03 0.04 0.06 0.09 0.10 0.10 0.10 0.09 0.08 0.08 0.09 0.09 0.09 0.08 0.08
0.00 0.00 0.00 0.00 0.00 0.01 0.01 0.02 0.03 0.03 0.02 0.01 0.00 0.00 0.00 0.00 0.00 0.00 0.00 0.00 0.00 0.00 0.00 0.00 0.00 0.00 0.01 0.01 0.02 0.02 0.03 0.04 0.05 0.07 0.07 0.07 0.08 0.08 0.08 0.09 0.08 0.07 0.05 0.04
0.01 0.00 0.00 0.00 0.00 0.00 0.00 0.01 0.01 0.02 0.01 0.00 0.00 0.00 0.00 0.00 0.00 0.00 0.00 0.00 0.00 0.00 0.00 0.00 0.00 0.00 0.00 0.01 0.01 0.02 0.03 0.03 0.04 0.04 0.05 0.06 0.07 0.06 0.06 0.06 0.06 0.06 0.05 0.04
0.01 0.01 0.01 0.01 0.01 0.01 0.01 0.01 0.01 0.02 0.02 0.01 0.00 0.00 0.00 0.00 0.00 0.00 0.00 0.00 0.00 0.00 0.00 0.00 0.00 0.00 0.00 0.00 0.01 0.01 0.02 0.03 0.04 0.05 0.05 0.05 0.05 0.05 0.05 0.05 0.05 0.04 0.04 0.03
0.01 0.01 0.00 0.01 0.01 0.01 0.01 0.01 0.02 0.04 0.04 0.02 0.01 0.01 0.01 0.01 0.00 0.00 0.00 0.00 0.00 0.00 0.00 0.00 0.00 0.00 0.00 0.00 0.00 0.01 0.01 0.02 0.03 0.04 0.04 0.04 0.04 0.03 0.03 0.03 0.02 0.02 0.02 0.02
0.01 0.01 0.00 0.01 0.01 0.01 0.01 0.02 0.02 0.03 0.04 0.03 0.03 0.02 0.01 0.01 0.00 0.00 0.00 0.00 0.00 0.00 0.00 0.00 0.00 0.00 0.00 0.00 0.00 0.00 0.01 0.01 0.01 0.02 0.03 0.03 0.03 0.02 0.02 0.02 0.01 0.01 0.01 0.01
0.00 0.00 0.00 0.00 0.00 0.01 0.01 0.01 0.02 0.04 0.04 0.03 0.04 0.03 0.02 0.01 0.00 0.00 0.00 0.00 0.00 0.00 0.00 0.00 0.00 0.00 0.00 0.00 0.00 0.00 0.00 0.00 0.01 0.01 0.01 0.01 0.02 0.02 0.02 0.02 0.01 0.01 0.01 0.01
0.01 0.01 0.01 0.00 0.01 0.01 0.01 0.01 0.02 0.03 0.05 0.04 0.05 0.03 0.01 0.01 0.01 0.01 0.01 0.00 0.00 0.00 0.00 0.00 0.00 0.00 0.00 0.00 0.00 0.00 0.00 0.00 0.00 0.01 0.01 0.01 0.01 0.01 0.01 0.01 0.01 0.01 0.01 0.01
0.01 0.01 0.00 0.00 0.01 0.02 0.02 0.02 0.02 0.05 0.07 0.04 0.02 0.01 0.01 0.01 0.01 0.01 0.00 0.00 0.00 0.00 0.00 0.00 0.00 0.00 0.00 0.00 0.00 0.00 0.00 0.00 0.00 0.00 0.00 0.00 0.00 0.00 0.00 0.00 0.00 0.00 0.00 0.00
0.01 0.01 0.01 0.00 0.00 0.01 0.01 0.01 0.01 0.02 0.03 0.03 0.01 0.01 0.01 0.01 0.01 0.01 0.01 0.00 0.00 0.00 0.00 0.00 0.00 0.00 0.00 0.00 0.00 0.00 0.00 0.00 0.00 0.00 0.00 0.00 0.00 0.00 0.00 0.00 0.00 0.00 0.00 0.00
0.01 0.01 0.01 0.00 0.00 0.00 0.00 0.00 0.00 0.01 0.01 0.01 0.01 0.01 0.01 0.01 0.01 0.01 0.01 0.01 0.00 0.00 0.00 0.00 0.00 0.00 0.00 0.00 0.00 0.00 0.00 0.00 0.00 0.00 0.00 0.00 0.00 0.00 0.00 0.00 0.00 0.00 0.00 0.00
0.01 0.01 0.01 0.00 0.00 0.00 0.00 0.00 0.00 0.00 0.01 0.01 0.01 0.01 0.01 0.01 0.01 0.01 0.00 0.00 0.00 0.00 0.00 0.00 0.00 0.00 0.00 0.00 0.00 0.00 0.00 0.00 0.00 0.00 0.00 0.00 0.00 0.00 0.00 0.00 0.00 0.00 0.00 0.00
0.00 0.00 0.01 0.01 0.00 0.00 0.00 0.00 0.00 0.01 0.01 0.01 0.01 0.01 0.01 0.01 0.01 0.01 0.01 0.00 0.00 0.00 0.00 0.00 0.00 0.00 0.00 0.00 0.00 0.00 0.00 0.00 0.00 0.00 0.00 0.00 0.00 0.00 0.00 0.00 0.00 0.00 0.00 0.00
0.00 0.00 0.01 0.01 0.01 0.00 0.00 0.00 0.00 0.00 0.01 0.01 0.00 0.00 0.00 0.01 0.01 0.01 0.01 0.00 0.00 0.00 0.00 0.00 0.00 0.00 0.00 0.00 0.00 0.00 0.00 0.00 0.00 0.00 0.00 0.00 0.00 0.00 0.00 0.00 0.00 0.00 0.00 0.00
0.00 0.00 0.01 0.01 0.02 0.01 0.01 0.01 0.01 0.01 0.02 0.01 0.01 0.01 0.01 0.01 0.01 0.01 0.00 0.00 0.01 0.01 0.01 0.00 0.00 0.00 0.00 0.00 0.00 0.00 0.00 0.00 0.00 0.00 0.00 0.00 0.00 0.00 0.00 0.00 0.00 0.00 0.00 0.00
0.00 0.01 0.01 0.01 0.01 0.01 0.01 0.01 0.01 0.03 0.03 0.03 0.02 0.02 0.02 0.02 0.02 0.01 0.01 0.01 0.01 0.01 0.01 0.00 0.00 0.00 0.00 0.00 0.00 0.00 0.00 0.00 0.00 0.00 0.00 0.00 0.01 0.01 0.01 0.01 0.01 0.01 0.00 0.00
0.00 0.00 0.01 0.01 0.02 0.02 0.01 0.01 0.03 0.04 0.03 0.03 0.03 0.03 0.02 0.02 0.02 0.01 0.01 0.01 0.01 0.01 0.01 0.01 0.00 0.00 0.00 0.01 0.01 0.01 0.01 0.01 0.00 0.00 0.00 0.00 0.01 0.01 0.01 0.02 0.01 0.01 0.00 0.00
0.00 0.00 0.00 0.01 0.01 0.02 0.02 0.03 0.03 0.03 0.03 0.02 0.02 0.02 0.01 0.01 0.01 0.01 0.01 0.02 0.02 0.02 0.01 0.01 0.01 0.00 0.00 0.00 0.00 0.01 0.01 0.01 0.00 0.00 0.00 0.00 0.00 0.00 0.01 0.01 0.01 0.00 0.00 0.00
0.00 0.00 0.00 0.00 0.00 0.00 0.01 0.01 0.02 0.02 0.01 0.01 0.01 0.01 0.01 0.01 0.00 0.00 0.01 0.02 0.02 0.02 0.02 0.02 0.01 0.01 0.00 0.00 0.00 0.00 0.01 0.01 0.00 0.00 0.01 0.01 0.01 0.01 0.01 0.00 0.00 0.00 0.00 0.00
0.01 0.00 0.00 0.00 0.00 0.00 0.00 0.00 0.01 0.01 0.00 0.00 0.00 0.00 0.00 0.01 0.00 0.01 0.01 0.01 0.01 0.01 0.02 0.02 0.03 0.02 0.01 0.00 0.00 0.00 0.01 0.01 0.01 0.01 0.01 0.01 0.01 0.01 0.01 0.00 0.00 0.01 0.01 0.01
0.01 0.01 0.00 0.00 0.00 0.00 0.00 0.00 0.00 0.00 0.00 0.00 0.00 0.00 0.01 0.01 0.01 0.01 0.01 0.01 0.01 0.02 0.02 0.03 0.03 0.03 0.04 0.03 0.02 0.02 0.01 0.01 0.01 0.01 0.01 0.01 0.01 0.01 0.01 0.01 0.01 0.01 0.01 0.02
MSLP
1016.29 1016.24 1016.02 1015.67 1015.29 1014.98 1014.80 1014.83 1015.06 1015.46 1015.93 1016.39 1016.72 1016.87 1016.80 1016.50 1016.04 1015.48 1014.91 1014.38 1013.94 1013.61 1013.38 1013.22 1013.13 1013.06 1013.03 1013.05 1013.13 1013.30 1013.57 1013.95 1014.42 1014.94 1015.46 1015.94 1016.36 1016.68 1016.91 1017.08 1017.21 1017.34 1017.50 1017.70
1016.27 1016.18 1015.92 1015.55 1015.16 1014.83 1014.67 1014.70 1014.95 1015.34 1015.81 1016.24 1016.55 1016.67 1016.56 1016.24 1015.76 1015.20 1014.62 1014.10 1013.68 1013.37 1013.15 1013.01 1012.90 1012.82 1012.77 1012.75 1012.79 1012.93 1013.18 1013.56 1014.03 1014.57 1015.12 1015.65 1016.11 1016.48 1016.76 1016.97 1017.13 1017.28 1017.45 1017.65
1016.24 1016.11 1015.82 1015.43 1015.05 1014.75 1014.60 1014.66 1014.90 1015.27 1015.68 1016.04 1016.26 1016.27 1016.07 1015.67 1015.13 1014.53 1013.95 1013.45 1013.07 1012.81 1012.65 1012.56 1012.51 1012.47 1012.44 1012.43 1012.47 1012.61 1012.85 1013.21 1013.68 1014.22 1014.79 1015.34 1015.84 1016.26 1016.58 1016.84 1017.05 1017.24 1017.44 1017.66
1016.19 1016.01 1015.70 1015.33 1014.98 1014.72 1014.63 1014.70 1014.94 1015.26 1015.59 1015.83 1015.90 1015.76 1015.41 1014.88 1014.24 1013.59 1012.99 1012.51 1012.18 1012.00 1011.93 1011.94 1011.98 1012.02 1012.06 1012.10 1012.18 1012.32 1012.55 1012.90 1013.34 1013.86 1014.42 1014.98 1015.49 1015.94 1016.33 1016.65 1016.92 1017.18 1017.43 1017.70
1016.11 1015.89 1015.57 1015.23 1014.94 1014.76 1014.72 1014.84 1015.07 1015.35 1015.57 1015.66 1015.56 1015.24 1014.71 1014.02 1013.26 1012.52 1011.90 1011.43 1011.15 1011.05 1011.10 1011.22 1011.39 1011.54 1011.67 1011.79 1011.91 1012.06 1012.29 1012.60 1013.00 1013.48 1014.00 1014.54 1015.06 1015.55 1015.98 1016.37 1016.73 1017.07 1017.40 1017.73
1015.97 1015.72 1015.42 1015.13 1014.92 1014.83 1014.88 1015.05 1015.28 1015.50 1015.63 1015.57 1015.29 1014.78 1014.06 1013.20 1012.32 1011.50 1010.83 1010.37 1010.15 1010.13 1010.28 1010.53 1010.81 1011.09 1011.32 1011.51 1011.68 1011.85 1012.06 1012.34 1012.68 1013.10 1013.57 1014.07 1014.59 1015.10 1015.58 1016.06 1016.51 1016.95 1017.37 1017.78
1015.76 1015.50 1015.24 1015.02 1014.91 1014.92 1015.06 1015.28 1015.53 1015.71 1015.74 1015.55 1015.10 1014.42 1013.53 1012.54 1011.54 1010.64 1009.94 1009.49 1009.30 1009.35 1009.59 1009.94 1010.34 1010.72 1011.05 1011.31 1011.53 1011.71 1011.90 1012.14 1012.42 1012.77 1013.18 1013.65 1014.15 1014.67 1015.21 1015.76 1016.30 1016.84 1017.37 1017.86
1015.48 1015.25 1015.05 1014.92 1014.91 1015.02 1015.24 1015.51 1015.76 1015.90 1015.85 1015.55 1014.98 1014.16 1013.15 1012.06 1010.98 1010.04 1009.32 1008.87 1008.72 1008.82 1009.12 1009.55 1010.03 1010.49 1010.90 1011.22 1011.47 1011.67 1011.85 1012.05 1012.28 1012.57 1012.93 1013.35 1013.83 1014.37 1014.95 1015.56 1016.19 1016.82 1017.43 1018.00
1015.19 1015.01 1014.88 1014.85 1014.93 1015.13 1015.41 1015.71 1015.95 1016.05 1015.92 1015.54 1014.87 1013.97 1012.89 1011.74 1010.65 1009.70 1008.98 1008.56 1008.42 1008.56 1008.90 1009.38 1009.91 1010.42 1010.88 1011.25 1011.54 1011.76 1011.94 1012.11 1012.31 1012.56 1012.88 1013.27 1013.74 1014.28 1014.89 1015.55 1016.23 1016.92 1017.59 1018.21
1014.94 1014.84 1014.80 1014.85 1015.01 1015.26 1015.56 1015.85 1016.05 1016.09 1015.89 1015.43 1014.71 1013.77 1012.68 1011.55 1010.47 1009.56 1008.89 1008.50 1008.39 1008.55 1008.91 1009.41 1009.96 1010.50 1010.99 1011.40 1011.72 1011.97 1012.17 1012.35 1012.54 1012.78 1013.08 1013.45 1013.91 1014.45 1015.07 1015.74 1016.45 1017.17 1017.85 1018.48
1014.82 1014.82 1014.86 1014.98 1015.18 1015.43 1015.70 1015.93 1016.05 1015.99 1015.71 1015.18 1014.43 1013.50 1012.45 1011.38 1010.38 1009.56 1008.96 1008.62 1008.56 1008.73 1009.09 1009.58 1010.13 1010.68 1011.19 1011.63 1011.99 1012.28 1012.52 1012.74 1012.96 1013.21 1013.51 1013.89 1014.34 1014.87 1015.48 1016.14 1016.84 1017.53 1018.20 1018.80
1014.90 1014.98 1015.10 1015.26 1015.46 1015.67 1015.86 1015.97 1015.95 1015.76 1015.37 1014.78 1014.01 1013.10 1012.12 1011.16 1010.29 1009.58 1009.09 1008.83 1008.80 1008.99 1009.34 1009.82 1010.34 1010.88 1011.40 1011.86 1012.27 1012.62 1012.92 1013.20 1013.48 1013.77 1014.10 1014.49 1014.94 1015.46 1016.05 1016.68 1017.33 1017.97 1018.58 1019.12
1015.18 1015.36 1015.53 1015.70 1015.86 1015.98 1016.03 1015.97 1015.78 1015.43 1014.91 1014.24 1013.45 1012.59 1011.70 1010.87 1010.15 1009.58 1009.21 1009.03 1009.05 1009.25 1009.59 1010.03 1010.52 1011.04 1011.55 1012.03 1012.48 1012.90 1013.28 1013.63 1013.99 1014.34 1014.73 1015.15 1015.61 1016.12 1016.67 1017.26 1017.85 1018.42 1018.95 1019.42
1015.67 1015.91 1016.12 1016.27 1016.35 1016.34 1016.22 1015.96 1015.57 1015.04 1014.38 1013.63 1012.83 1012.01 1011.22 1010.53 1009.95 1009.53 1009.28 1009.19 1009.25 1009.45 1009.76 1010.15 1010.60 1011.07 1011.57 1012.06 1012.55 1013.02 1013.49 1013.93 1014.37 1014.81 1015.26 1015.72 1016.21 1016.72 1017.25 1017.79 1018.33 1018.83 1019.29 1019.68
1016.30 1016.58 1016.79 1016.89 1016.87 1016.72 1016.41 1015.96 1015.37 1014.66 1013.87 1013.05 1012.23 1011.45 1010.77 1010.20 1009.77 1009.48 1009.32 1009.30 1009.39 1009.57 1009.83 1010.16 1010.54 1010.96 1011.42 1011.90 1012.42 1012.94 1013.47 1014.01 1014.54 1015.07 1015.59 1016.11 1016.64 1017.17 1017.69 1018.21 1018.70 1019.16 1019.56 1019.90
1016.98 1017.28 1017.46 1017.50 1017.38 1017.09 1016.61 1015.98 1015.21 1014.36 1013.47 1012.58 1011.76 1011.04 1010.44 1009.98 1009.66 1009.47 1009.39 1009.40 1009.49 1009.63 1009.82 1010.06 1010.35 1010.69 1011.09 1011.55 1012.06 1012.62 1013.21 1013.82 1014.44 1015.05 1015.66 1016.25 1016.83 1017.40 1017.94 1018.47 1018.96 1019.40 1019.78 1020.09
1017.63 1017.91 1018.05 1018.03 1017.81 1017.40 1016.80 1016.03 1015.14 1014.20 1013.24 1012.34 1011.53 1010.86 1010.33 1009.96 1009.72 1009.59 1009.55 1009.55 1009.60 1009.67 1009.76 1009.89 1010.07 1010.31 1010.64 1011.04 1011.53 1012.09 1012.72 1013.39 1014.07 1014.77 1015.45 1016.13 1016.78 1017.41 1018.00 1018.56 1019.08 1019.54 1019.93 1020.26
1018.17 1018.41 1018.50 1018.42 1018.13 1017.64 1016.96 1016.13 1015.18 1014.20 1013.24 1012.36 1011.60 1010.98 1010.52 1010.20 1010.01 1009.90 1009.84 1009.80 1009.77 1009.74 1009.71 1009.71 1009.76 1009.89 1010.12 1010.45 1010.90 1011.45 1012.08 1012.78 1013.52 1014.29 1015.05 1015.80 1016.53 1017.23 1017.89 1018.52 1019.08 1019.59 1020.03 1020.40
1018.58 1018.76 1018.79 1018.65 1018.32 1017.79 1017.09 1016.25 1015.32 1014.38 1013.46 1012.64 1011.94 1011.39 1010.98 1010.70 1010.51 1010.38 1010.27 1010.15 1010.02 1009.87 1009.71 1009.58 1009.50 1009.51 1009.64 1009.89 1010.28 1010.79 1011.42 1012.14 1012.91 1013.72 1014.54 1015.36 1016.17 1016.94 1017.68 1018.37 1019.00 1019.57 1020.06 1020.48
1018.87 1018.97 1018.94 1018.75 1018.39 1017.86 1017.18 1016.38 1015.53 1014.66 1013.84 1013.11 1012.50 1012.01 1011.64 1011.37 1011.17 1010.99 1010.81 1010.60 1010.35 1010.08 1009.80 1009.54 1009.35 1009.25 1009.28 1009.46 1009.79 1010.26 1010.86 1011.57 1012.36 1013.19 1014.06 1014.93 1015.78 1016.62 1017.42 1018.17 1018.87 1019.49 1020.03 1020.49
1019.07 1019.09 1018.99 1018.74 1018.36 1017.84 1017.21 1016.49 1015.74 1014.99 1014.29 1013.66 1013.14 1012.71 1012.38 1012.11 1011.87 1011.64 1011.38 1011.07 1010.73 1010.35 1009.97 1009.62 1009.34 1009.17 1009.13 1009.24 1009.52 1009.95 1010.52 1011.20 1011.98 1012.82 1013.69 1014.58 1015.47 1016.34 1017.17 1017.96 1018.69 1019.34 1019.91 1020.39
1019.23 1019.15 1018.96 1018.66 1018.25 1017.75 1017.17 1016.54 1015.89 1015.26 1014.68 1014.17 1013.73 1013.36 1013.05 1012.77 1012.50 1012.22 1011.89 1011.51 1011.10 1010.65 1010.22 1009.82 1009.49 1009.28 1009.20 1009.28 1009.51 1009.90 1010.44 1011.09 1011.83 1012.64 1013.50 1014.38 1015.26 1016.13 1016.97 1017.76 1018.49 1019.14 1019.71 1020.18
1019.37 1019.17 1018.89 1018.52 1018.07 1017.57 1017.03 1016.48 1015.93 1015.41 1014.94 1014.52 1014.15 1013.82 1013.53 1013.25 1012.96 1012.63 1012.26 1011.85 1011.41 1010.95 1010.50 1010.11 1009.79 1009.58 1009.50 1009.57 1009.78 1010.14 1010.63 1011.23 1011.93 1012.69 1013.49 1014.33 1015.17 1016.01 1016.81 1017.57 1018.26 1018.89 1019.42 1019.87
1019.48 1019.16 1018.77 1018.32 1017.83 1017.31 1016.79 1016.29 1015.81 1015.38 1014.98 1014.63 1014.32 1014.03 1013.76 1013.47 1013.17 1012.83 1012.46 1012.06 1011.64 1011.22 1010.82 1010.48 1010.21 1010.04 1010.00 1010.07 1010.28 1010.61 1011.05 1011.60 1012.22 1012.91 1013.64 1014.41 1015.18 1015.95 1016.69 1017.39 1018.03 1018.60 1019.08 1019.49
1019.52 1019.09 1018.59 1018.06 1017.51 1016.97 1016.45 1015.97 1015.54 1015.16 1014.82 1014.52 1014.24 1013.98 1013.72 1013.45 1013.16 1012.84 1012.51 1012.15 1011.80 1011.46 1011.15 1010.90 1010.72 1010.63 1010.63 1010.73 1010.93 1011.23 1011.62 1012.10 1012.64 1013.24 1013.88 1014.55 1015.24 1015.92 1016.58 1017.21 1017.78 1018.28 1018.70 1019.05
1019.44 1018.91 1018.32 1017.71 1017.11 1016.54 1016.02 1015.55 1015.15 1014.80 1014.49 1014.22 1013.97 1013.74 1013.50 1013.25 1012.99 1012.73 1012.46 1012.19 1011.94 1011.71 1011.52 1011.38 1011.30 1011.29 1011.34 1011.47 1011.66 1011.92 1012.25 1012.64 1013.09 1013.59 1014.13 1014.70 1015.29 1015.89 1016.46 1017.01 1017.51 1017.94 1018.31 1018.60
Thickness
5518 5514 5513 5520 5528 5533 5537 5539 5542 5551 5562 5564 5567 5576 5587 5598 5603 5608 5616 5624 5632 5642 5653 5661 5666 5670 5673 5676 5678 5680 5680 5681 5680 5678 5678 5676 5676 5678 5677 5677 5677 5676 5675 5673
5512 5513 5521 5528 5532 5535 5537 5538 5541 5550 5560 5562 5564 5571 5582 5592 5600 5608 5615 5622 5628 5636 5644 5652 5658 5662 5665 5669 5671 5673 5674 5675 5675 5675 5674 5673 5672 5671 5671 5670 5669 5669 5668 5667
5515 5520 5530 5532 5533 5533 5536 5537 5541 5547 5554 5560 5561 5565 5576 5590 5598 5607 5615 5621 5627 5633 5639 5645 5650 5655 5659 5662 5665 5668 5669 5670 5670 5669 5667 5664 5662 5661 5660 5660 5660 5660 5660 5659
5520 5527 5531 5531 5531 5534 5532 5542 5546 5548 5545 5545 5553 5550 5570 5583 5591 5601 5611 5616 5622 5629 5635 5640 5644 5649 5652 5656 5659 5661 5663 5663 5663 5662 5661 5659 5656 5655 5656 5654 5652 5651 5651 5650
5520 5526 5528 5528 5532 5537 5535 5542 5543 5544 5541 5540 5545 5544 5563 5577 5585 5598 5607 5613 5619 5625 5630 5634 5639 5644 5647 5650 5651 5653 5655 5655 5655 5655 5654 5652 5651 5650 5648 5646 5643 5641 5640 5639
5524 5529 5530 5531 5536 5539 5539 5537 5535 5531 5530 5530 5542 5541 5555 5571 5587 5598 5606 5611 5617 5622 5626 5629 5633 5636 5638 5640 5642 5643 5645 5645 5646 5646 5645 5644 5643 5641 5638 5636 5633 5631 5629 5628
5519 5526 5531 5535 5533 5535 5532 5521 5513 5513 5513 5525 5539 5541 5557 5579 5588 5596 5603 5608 5613 5616 5619 5622 5624 5626 5627 5629 5631 5633 5634 5635 5635 5636 5635 5635 5634 5633 5630 5628 5625 5621 5618 5616
5510 5511 5525 5531 5530 5527 5527 5522 5510 5511 5512 5520 5536 5539 5561 5580 5587 5593 5598 5603 5606 5608 5611 5615 5617 5618 5619 5620 5620 5621 5623 5623 5623 5624 5624 5624 5623 5622 5620 5618 5616 5612 5609 5606
5511 5513 5527 5530 5531 5529 5525 5519 5521 5513 5512 5515 5526 5542 5559 5577 5580 5583 5587 5592 5595 5599 5603 5605 5607 5608 5609 5610 5610 5611 5612 5612 5611 5612 5611 5611 5610 5609 5608 5606 5604 5601 5598 5596
5519 5514 5521 5526 5529 5527 5525 5522 5513 5510 5509 5514 5525 5533 5545 5561 5568 5572 5576 5581 5585 5588 5591 5594 5595 5597 5598 5598 5599 5599 5600 5600 5600 5600 5600 5599 5598 5597 5595 5593 5591 5589 5586 5584
5521 5511 5512 5517 5517 5517 5518 5518 5514 5505 5504 5507 5514 5529 5549 5553 5559 5562 5566 5570 5574 5577 5579 5582 5584 5585 5587 5587 5587 5587 5588 5588 5587 5587 5586 5585 5584 5583 5582 5580 5578 5575 5573 5571
5519 5506 5499 5508 5516 5519 5516 5515 5510 5503 5502 5499 5501 5525 5550 5549 5552 5555 5559 5562 5565 5568 5569 5570 5571 5572 5573 5575 5575 5576 5576 5576 5576 5575 5574 5573 5572 5570 5568 5566 5564 5562 5560 5558
5520 5505 5493 5497 5505 5510 5511 5511 5510 5503 5498 5494 5498 5521 5542 5541 5544 5547 5549 5551 5553 5556 5558 5558 5559 5560 5562 5563 5564 5564 5565 5565 5564 5563 5562 5560 5559 5557 5555 5553 5551 5549 5547 5545
5519 5503 5493 5494 5500 5502 5503 5506 5506 5498 5493 5493 5499 5514 5529 5531 5532 5535 5537 5540 5541 5544 5546 5547 5548 5549 5550 5552 5553 5554 5554 5554 5554 5552 5550 5549 5547 5545 5543 5541 5539 5537 5534 5532
5514 5503 5500 5499 5502 5501 5501 5503 5502 5495 5494 5490 5502 5507 5518 5519 5521 5524 5526 5529 5532 5535 5537 5539 5539 5539 5540 5541 5542 5543 5544 5544 5544 5542 5540 5539 5536 5534 5532 5529 5527 5525 5522 5520
5506 5501 5499 5497 5500 5497 5498 5501 5500 5498 5498 5497 5500 5503 5509 5510 5511 5514 5516 5519 5522 5524 5527 5530 5531 5531 5531 5532 5534 5535 5535 5534 5534 5533 5531 5528 5526 5523 5520 5518 5515 5513 5511 5509
5499 5494 5488 5481 5487 5489 5486 5498 5498 5497 5498 5496 5494 5500 5501 5502 5504 5504 5505 5507 5509 5512 5515 5518 5520 5522 5524 5526 5527 5527 5528 5526 5525 5523 5521 5519 5516 5513 5510 5508 5504 5502 5500 5498
5496 5487 5477 5473 5476 5471 5494 5500 5499 5495 5495 5492 5492 5492 5492 5493 5493 5494 5495 5495 5497 5500 5504 5507 5510 5513 5516 5518 5519 5520 5519 5517 5516 5514 5512 5509 5506 5503 5500 5497 5494 5491 5489 5486
5494 5487 5473 5465 5463 5472 5488 5493 5490 5486 5487 5483 5481 5481 5481 5483 5484 5485 5487 5487 5488 5490 5493 5496 5499 5503 5506 5509 5511 5511 5510 5508 5506 5505 5503 5501 5498 5494 5491 5488 5485 5482 5479 5476
5489 5483 5471 5463 5463 5468 5484 5487 5486 5483 5477 5474 5472 5471 5470 5471 5469 5474 5478 5478 5480 5483 5484 5488 5491 5493 5497 5499 5501 5501 5500 5499 5498 5498 5496 5493 5491 5487 5484 5480 5476 5473 5470 5468
5482 5473 5465 5459 5458 5467 5478 5480 5479 5467 5466 5466 5463 5461 5460 5459 5460 5464 5467 5470 5473 5475 5478 5480 5482 5484 5487 5490 5492 5492 5492 5492 5492 5490 5487 5485 5482 5479 5476 5472 5468 5465 5461 5458
5480 5468 5462 5457 5454 5464 5475 5469 5463 5461 5458 5456 5454 5452 5452 5452 5455 5457 5459 5462 5464 5467 5470 5472 5473 5475 5477 5479 5482 5483 5483 5483 5482 5481 5478 5476 5473 5471 5467 5463 5459 5456 5453 5450
5477 5475 5467 5464 5469 5470 5467 5461 5457 5452 5449 5447 5445 5444 5444 5446 5447 5449 5451 5453 5456 5458 5460 5462 5463 5464 5466 5469 5471 5473 5473 5473 5473 5471 5469 5466 5464 5461 5458 5455 5451 5448 5445 5443
5475 5473 5466 5462 5464 5463 5458 5453 5449 5445 5442 5440 5438 5438 5438 5437 5438 5440 5442 5445 5447 5450 5452 5453 5453 5455 5456 5459 5461 5463 5464 5464 5463 5461 5459 5457 5455 5452 5449 5447 5445 5442 5439 5437
5472 5467 5460 5457 5458 5455 5452 5446 5441 5438 5435 5433 5432 5430 5430 5430 5431 5432 5434 5437 5439 5442 5444 5445 5445 5447 5449 5451 5452 5454 5455 5455 5454 5452 5450 5448 5447 5445 5442 5440 5439 5437 5436 5434
5463 5462 5457 5456 5455 5448 5445 5441 5436 5431 5429 5426 5424 5423 5422 5422 5423 5425 5427 5430 5432 5434 5436 5437 5438 5439 5441 5442 5443 5444 5445 5446 5445 5443 5441 5440 5438 5436 5434 5432 5430 5430 5428 5428